QPF
0.01 0.01 0.01 0.01 0.00 0.00 0.00 0.00 0.00 0.01 0.01 0.01 0.01 0.00 0.00 0.00 0.00 0.00 0.00 0.00 0.00 0.00 0.00 0.00 0.00 0.00 0.00 0.00 0.00 0.00 0.00 0.00 0.00 0.00 0.01 0.01 0.01 0.02
0.02 0.02 0.02 0.01 0.02 0.01 0.01 0.00 0.00 0.01 0.01 0.01 0.01 0.01 0.01 0.00 0.00 0.00 0.00 0.00 0.00 0.00 0.00 0.00 0.00 0.00 0.00 0.00 0.00 0.00 0.00 0.00 0.00 0.00 0.00 0.00 0.00 0.00
0.03 0.03 0.03 0.03 0.03 0.03 0.02 0.03 0.02 0.02 0.02 0.01 0.01 0.01 0.01 0.01 0.01 0.01 0.00 0.00 0.01 0.01 0.00 0.00 0.00 0.00 0.00 0.00 0.00 0.00 0.00 0.00 0.00 0.00 0.00 0.00 0.00 0.00
0.06 0.06 0.05 0.05 0.05 0.04 0.04 0.05 0.04 0.05 0.04 0.03 0.02 0.02 0.03 0.04 0.04 0.03 0.01 0.01 0.00 0.02 0.01 0.00 0.00 0.00 0.00 0.00 0.00 0.00 0.00 0.00 0.00 0.00 0.00 0.00 0.00 0.00
0.07 0.07 0.06 0.05 0.05 0.05 0.05 0.06 0.05 0.05 0.06 0.04 0.03 0.04 0.04 0.06 0.08 0.06 0.03 0.03 0.01 0.01 0.02 0.01 0.01 0.00 0.00 0.00 0.00 0.00 0.00 0.00 0.00 0.00 0.00 0.00 0.00 0.00
0.10 0.09 0.07 0.07 0.06 0.07 0.07 0.08 0.07 0.07 0.08 0.07 0.07 0.06 0.08 0.08 0.10 0.10 0.08 0.08 0.05 0.02 0.03 0.04 0.02 0.01 0.01 0.01 0.00 0.00 0.00 0.00 0.00 0.00 0.00 0.00 0.00 0.00
0.10 0.10 0.09 0.07 0.05 0.04 0.04 0.05 0.06 0.06 0.07 0.08 0.08 0.08 0.09 0.09 0.09 0.08 0.08 0.06 0.04 0.02 0.02 0.02 0.02 0.03 0.05 0.05 0.04 0.03 0.01 0.01 0.00 0.00 0.00 0.00 0.00 0.00
0.08 0.08 0.07 0.06 0.05 0.04 0.03 0.02 0.03 0.03 0.05 0.06 0.06 0.06 0.06 0.07 0.07 0.06 0.06 0.05 0.03 0.02 0.04 0.02 0.02 0.03 0.03 0.03 0.05 0.04 0.03 0.02 0.02 0.01 0.01 0.00 0.00 0.00
0.05 0.05 0.05 0.05 0.05 0.05 0.05 0.04 0.03 0.02 0.01 0.02 0.02 0.03 0.04 0.03 0.03 0.03 0.03 0.03 0.03 0.02 0.03 0.02 0.01 0.01 0.01 0.01 0.02 0.02 0.01 0.01 0.01 0.01 0.01 0.01 0.00 0.00
0.02 0.02 0.03 0.03 0.03 0.03 0.04 0.04 0.03 0.03 0.02 0.01 0.01 0.01 0.01 0.01 0.02 0.02 0.02 0.02 0.01 0.01 0.03 0.02 0.01 0.01 0.01 0.01 0.01 0.02 0.02 0.01 0.01 0.01 0.01 0.01 0.00 0.00
0.01 0.01 0.01 0.01 0.01 0.01 0.01 0.01 0.02 0.02 0.02 0.02 0.01 0.01 0.01 0.00 0.00 0.00 0.00 0.01 0.01 0.01 0.02 0.03 0.02 0.02 0.02 0.01 0.01 0.02 0.02 0.01 0.01 0.01 0.01 0.01 0.01 0.00
0.01 0.01 0.00 0.00 0.00 0.00 0.00 0.00 0.00 0.00 0.00 0.00 0.00 0.00 0.00 0.00 0.00 0.00 0.01 0.01 0.01 0.01 0.01 0.01 0.01 0.02 0.02 0.01 0.01 0.01 0.02 0.02 0.01 0.01 0.01 0.01 0.01 0.01
0.00 0.00 0.00 0.00 0.00 0.00 0.00 0.00 0.00 0.00 0.00 0.00 0.00 0.00 0.00 0.00 0.01 0.01 0.02 0.02 0.02 0.01 0.01 0.01 0.01 0.01 0.01 0.01 0.01 0.01 0.01 0.01 0.01 0.01 0.01 0.01 0.01 0.01
0.00 0.00 0.00 0.00 0.00 0.00 0.00 0.00 0.00 0.00 0.00 0.00 0.00 0.00 0.00 0.00 0.00 0.00 0.01 0.01 0.01 0.01 0.01 0.02 0.02 0.02 0.03 0.02 0.01 0.01 0.00 0.00 0.00 0.01 0.01 0.00 0.00 0.00
0.00 0.00 0.00 0.00 0.00 0.00 0.00 0.00 0.00 0.00 0.00 0.00 0.00 0.00 0.00 0.00 0.00 0.00 0.00 0.01 0.01 0.01 0.01 0.02 0.03 0.03 0.03 0.03 0.02 0.01 0.01 0.00 0.00 0.00 0.00 0.01 0.01 0.01
0.00 0.00 0.00 0.00 0.00 0.00 0.00 0.00 0.00 0.00 0.00 0.00 0.00 0.00 0.00 0.00 0.00 0.00 0.00 0.00 0.00 0.00 0.00 0.01 0.02 0.03 0.03 0.03 0.03 0.02 0.01 0.01 0.01 0.01 0.01 0.01 0.01 0.01
0.00 0.00 0.00 0.00 0.00 0.00 0.00 0.00 0.00 0.00 0.00 0.01 0.00 0.00 0.00 0.00 0.00 0.00 0.01 0.01 0.01 0.01 0.01 0.01 0.01 0.01 0.02 0.02 0.02 0.01 0.02 0.01 0.01 0.02 0.03 0.02 0.01 0.01
0.00 0.00 0.00 0.00 0.00 0.00 0.00 0.00 0.00 0.00 0.01 0.01 0.01 0.01 0.01 0.01 0.01 0.01 0.01 0.01 0.01 0.01 0.01 0.01 0.01 0.01 0.01 0.01 0.01 0.02 0.02 0.02 0.02 0.02 0.02 0.03 0.02 0.01
0.00 0.00 0.00 0.00 0.00 0.00 0.00 0.00 0.00 0.01 0.01 0.01 0.01 0.01 0.01 0.01 0.01 0.01 0.01 0.01 0.01 0.01 0.01 0.01 0.01 0.02 0.03 0.02 0.01 0.01 0.01 0.01 0.01 0.01 0.02 0.03 0.03 0.01
0.00 0.00 0.00 0.00 0.00 0.00 0.00 0.01 0.01 0.01 0.01 0.01 0.01 0.01 0.01 0.01 0.01 0.01 0.01 0.01 0.01 0.01 0.01 0.01 0.01 0.03 0.04 0.03 0.02 0.00 0.00 0.01 0.03 0.03 0.03 0.03 0.03 0.02
0.00 0.00 0.00 0.00 0.00 0.00 0.01 0.01 0.01 0.01 0.01 0.01 0.01 0.01 0.01 0.01 0.01 0.01 0.01 0.01 0.01 0.01 0.02 0.01 0.01 0.02 0.02 0.03 0.03 0.01 0.01 0.01 0.02 0.03 0.04 0.03 0.03 0.02
0.00 0.00 0.00 0.00 0.00 0.00 0.01 0.01 0.00 0.00 0.00 0.01 0.01 0.01 0.01 0.01 0.01 0.01 0.01 0.01 0.02 0.02 0.02 0.01 0.01 0.01 0.02 0.03 0.02 0.01 0.01 0.01 0.01 0.02 0.03 0.04 0.04 0.04
0.00 0.00 0.00 0.00 0.00 0.00 0.00 0.00 0.00 0.00 0.01 0.01 0.01 0.01 0.01 0.01 0.01 0.01 0.01 0.01 0.02 0.02 0.02 0.01 0.01 0.01 0.01 0.02 0.02 0.02 0.01 0.02 0.02 0.03 0.04 0.04 0.03 0.03
MSLP
1016.93 1017.01 1017.11 1017.22 1017.31 1017.37 1017.39 1017.38 1017.32 1017.24 1017.14 1017.03 1016.94 1016.87 1016.84 1016.84 1016.88 1016.95 1017.07 1017.23 1017.41 1017.63 1017.85 1018.08 1018.29 1018.48 1018.63 1018.73 1018.80 1018.84 1018.86 1018.87 1018.89 1018.92 1018.96 1019.00 1019.05 1019.08
1016.65 1016.71 1016.79 1016.88 1016.96 1017.02 1017.07 1017.08 1017.07 1017.03 1016.98 1016.92 1016.86 1016.81 1016.77 1016.75 1016.76 1016.79 1016.84 1016.93 1017.05 1017.20 1017.37 1017.55 1017.74 1017.91 1018.07 1018.19 1018.28 1018.34 1018.37 1018.39 1018.40 1018.41 1018.42 1018.43 1018.44 1018.45
1016.39 1016.45 1016.52 1016.60 1016.69 1016.78 1016.85 1016.90 1016.93 1016.95 1016.94 1016.93 1016.91 1016.88 1016.85 1016.82 1016.80 1016.77 1016.76 1016.77 1016.80 1016.86 1016.94 1017.05 1017.18 1017.32 1017.45 1017.57 1017.67 1017.75 1017.80 1017.84 1017.86 1017.87 1017.86 1017.86 1017.85 1017.84
1016.23 1016.29 1016.38 1016.48 1016.60 1016.71 1016.82 1016.91 1016.98 1017.04 1017.07 1017.10 1017.10 1017.10 1017.08 1017.04 1016.99 1016.92 1016.84 1016.77 1016.70 1016.65 1016.63 1016.64 1016.68 1016.74 1016.83 1016.92 1017.02 1017.10 1017.18 1017.23 1017.27 1017.30 1017.30 1017.30 1017.28 1017.27
1016.24 1016.31 1016.42 1016.55 1016.70 1016.85 1016.99 1017.11 1017.22 1017.30 1017.36 1017.40 1017.42 1017.43 1017.41 1017.36 1017.29 1017.18 1017.05 1016.90 1016.74 1016.58 1016.45 1016.34 1016.27 1016.25 1016.26 1016.30 1016.37 1016.45 1016.53 1016.61 1016.67 1016.71 1016.73 1016.74 1016.73 1016.71
1016.43 1016.52 1016.65 1016.82 1017.00 1017.18 1017.34 1017.48 1017.60 1017.68 1017.74 1017.78 1017.79 1017.79 1017.77 1017.72 1017.63 1017.50 1017.33 1017.12 1016.89 1016.64 1016.40 1016.18 1016.00 1015.87 1015.79 1015.76 1015.78 1015.83 1015.91 1015.99 1016.06 1016.13 1016.17 1016.18 1016.17 1016.15
1016.78 1016.88 1017.04 1017.23 1017.44 1017.64 1017.81 1017.95 1018.05 1018.11 1018.13 1018.14 1018.13 1018.11 1018.07 1018.01 1017.92 1017.78 1017.60 1017.36 1017.09 1016.78 1016.46 1016.15 1015.87 1015.64 1015.46 1015.35 1015.30 1015.30 1015.35 1015.41 1015.49 1015.55 1015.60 1015.61 1015.60 1015.56
1017.25 1017.36 1017.53 1017.73 1017.95 1018.15 1018.31 1018.42 1018.48 1018.49 1018.46 1018.42 1018.36 1018.31 1018.25 1018.18 1018.09 1017.96 1017.79 1017.56 1017.28 1016.94 1016.58 1016.21 1015.85 1015.53 1015.26 1015.07 1014.94 1014.88 1014.87 1014.90 1014.95 1014.99 1015.02 1015.02 1014.99 1014.93
1017.77 1017.88 1018.04 1018.25 1018.45 1018.63 1018.76 1018.83 1018.83 1018.78 1018.68 1018.56 1018.45 1018.34 1018.25 1018.17 1018.09 1017.99 1017.85 1017.65 1017.39 1017.07 1016.71 1016.31 1015.91 1015.52 1015.19 1014.91 1014.70 1014.56 1014.48 1014.45 1014.45 1014.45 1014.44 1014.41 1014.34 1014.25
1018.30 1018.39 1018.54 1018.72 1018.90 1019.05 1019.13 1019.14 1019.07 1018.94 1018.77 1018.58 1018.39 1018.23 1018.11 1018.02 1017.94 1017.87 1017.76 1017.61 1017.40 1017.12 1016.78 1016.39 1015.98 1015.57 1015.18 1014.84 1014.55 1014.34 1014.18 1014.07 1014.00 1013.94 1013.87 1013.79 1013.67 1013.53
1018.81 1018.88 1019.00 1019.14 1019.28 1019.38 1019.41 1019.36 1019.23 1019.03 1018.78 1018.51 1018.27 1018.05 1017.89 1017.77 1017.69 1017.63 1017.56 1017.46 1017.30 1017.07 1016.77 1016.42 1016.02 1015.60 1015.19 1014.80 1014.46 1014.17 1013.94 1013.75 1013.59 1013.46 1013.32 1013.17 1013.00 1012.80
1019.31 1019.34 1019.42 1019.52 1019.61 1019.66 1019.64 1019.53 1019.35 1019.09 1018.78 1018.46 1018.15 1017.88 1017.67 1017.52 1017.43 1017.36 1017.30 1017.23 1017.11 1016.93 1016.68 1016.36 1015.99 1015.59 1015.17 1014.76 1014.37 1014.03 1013.73 1013.46 1013.23 1013.02 1012.81 1012.60 1012.37 1012.12
1019.81 1019.80 1019.83 1019.87 1019.91 1019.91 1019.85 1019.71 1019.49 1019.20 1018.86 1018.50 1018.15 1017.83 1017.57 1017.38 1017.24 1017.14 1017.07 1016.99 1016.88 1016.72 1016.50 1016.22 1015.88 1015.50 1015.09 1014.68 1014.27 1013.88 1013.53 1013.20 1012.90 1012.62 1012.34 1012.07 1011.79 1011.49
1020.32 1020.26 1020.23 1020.22 1020.21 1020.18 1020.09 1019.93 1019.70 1019.41 1019.06 1018.69 1018.31 1017.96 1017.65 1017.40 1017.20 1017.05 1016.92 1016.81 1016.67 1016.51 1016.30 1016.03 1015.71 1015.35 1014.96 1014.54 1014.12 1013.71 1013.32 1012.94 1012.58 1012.25 1011.92 1011.59 1011.27 1010.93
1020.82 1020.71 1020.63 1020.57 1020.52 1020.46 1020.36 1020.21 1020.00 1019.73 1019.41 1019.05 1018.67 1018.30 1017.95 1017.64 1017.36 1017.13 1016.93 1016.74 1016.55 1016.34 1016.11 1015.83 1015.51 1015.16 1014.77 1014.36 1013.93 1013.50 1013.08 1012.67 1012.27 1011.88 1011.51 1011.14 1010.78 1010.41
1021.29 1021.12 1020.99 1020.89 1020.81 1020.74 1020.66 1020.54 1020.37 1020.16 1019.88 1019.56 1019.20 1018.83 1018.45 1018.08 1017.73 1017.40 1017.10 1016.82 1016.54 1016.26 1015.98 1015.67 1015.33 1014.96 1014.57 1014.15 1013.71 1013.26 1012.81 1012.37 1011.93 1011.50 1011.08 1010.68 1010.28 1009.88
1021.66 1021.46 1021.29 1021.16 1021.07 1021.01 1020.95 1020.88 1020.78 1020.64 1020.43 1020.17 1019.85 1019.49 1019.09 1018.67 1018.25 1017.83 1017.43 1017.04 1016.67 1016.30 1015.94 1015.57 1015.19 1014.79 1014.37 1013.93 1013.47 1012.99 1012.51 1012.02 1011.54 1011.07 1010.60 1010.15 1009.71 1009.28
1021.92 1021.69 1021.50 1021.36 1021.28 1021.24 1021.23 1021.22 1021.19 1021.12 1021.00 1020.81 1020.54 1020.20 1019.80 1019.35 1018.87 1018.37 1017.88 1017.39 1016.92 1016.46 1016.01 1015.58 1015.13 1014.68 1014.21 1013.73 1013.22 1012.70 1012.16 1011.62 1011.09 1010.56 1010.04 1009.54 1009.05 1008.56
1022.06 1021.82 1021.63 1021.50 1021.44 1021.43 1021.46 1021.52 1021.57 1021.58 1021.53 1021.40 1021.18 1020.87 1020.47 1020.00 1019.48 1018.92 1018.35 1017.78 1017.23 1016.69 1016.16 1015.65 1015.14 1014.62 1014.09 1013.54 1012.97 1012.39 1011.79 1011.18 1010.58 1009.98 1009.40 1008.83 1008.28 1007.74
1022.11 1021.89 1021.71 1021.61 1021.57 1021.61 1021.69 1021.79 1021.90 1021.97 1021.98 1021.90 1021.71 1021.42 1021.03 1020.55 1020.00 1019.40 1018.77 1018.14 1017.52 1016.92 1016.33 1015.75 1015.18 1014.59 1014.00 1013.37 1012.73 1012.07 1011.39 1010.70 1010.02 1009.35 1008.70 1008.06 1007.44 1006.83
1022.14 1021.95 1021.81 1021.74 1021.74 1021.80 1021.92 1022.06 1022.19 1022.29 1022.32 1022.26 1022.09 1021.80 1021.40 1020.91 1020.33 1019.71 1019.05 1018.39 1017.73 1017.08 1016.45 1015.82 1015.19 1014.55 1013.89 1013.20 1012.48 1011.74 1010.98 1010.22 1009.46 1008.72 1007.99 1007.29 1006.61 1005.94
1022.22 1022.07 1021.98 1021.94 1021.97 1022.05 1022.18 1022.33 1022.46 1022.55 1022.56 1022.48 1022.29 1021.97 1021.55 1021.03 1020.44 1019.79 1019.12 1018.44 1017.76 1017.10 1016.45 1015.80 1015.14 1014.46 1013.75 1013.01 1012.23 1011.43 1010.60 1009.77 1008.95 1008.14 1007.36 1006.60 1005.87 1005.15
1022.39 1022.29 1022.24 1022.23 1022.28 1022.37 1022.49 1022.60 1022.70 1022.74 1022.69 1022.55 1022.30 1021.94 1021.46 1020.91 1020.29 1019.63 1018.94 1018.26 1017.59 1016.93 1016.28 1015.63 1014.97 1014.28 1013.55 1012.78 1011.97 1011.13 1010.26 1009.39 1008.53 1007.69 1006.87 1006.08 1005.31 1004.56
Thickness
5728 5727 5726 5728 5729 5729 5728 5725 5717 5710 5713 5723 5727 5731 5730 5727 5723 5720 5718 5715 5713 5711 5709 5707 5705 5704 5703 5701 5700 5699 5698 5697 5696 5696 5695 5695 5694 5694
5723 5723 5722 5723 5724 5724 5723 5722 5720 5713 5708 5716 5719 5723 5723 5722 5718 5716 5714 5712 5710 5707 5706 5704 5703 5701 5700 5699 5697 5696 5695 5694 5694 5693 5692 5692 5692 5691
5719 5718 5717 5717 5716 5716 5716 5715 5714 5711 5705 5708 5713 5715 5715 5712 5711 5709 5708 5706 5705 5703 5702 5700 5699 5698 5696 5695 5693 5692 5691 5690 5690 5689 5689 5688 5688 5688
5712 5712 5710 5711 5709 5707 5707 5706 5705 5705 5701 5698 5701 5703 5703 5703 5702 5701 5700 5700 5700 5700 5698 5697 5695 5693 5691 5690 5689 5687 5687 5686 5685 5684 5684 5684 5683 5683
5707 5705 5703 5702 5699 5699 5698 5697 5696 5697 5695 5691 5691 5692 5692 5692 5691 5691 5691 5690 5691 5691 5691 5690 5688 5686 5685 5684 5683 5682 5681 5680 5680 5679 5678 5678 5678 5678
5698 5696 5694 5692 5689 5689 5688 5686 5686 5685 5684 5682 5681 5681 5681 5681 5679 5677 5676 5678 5678 5679 5680 5680 5679 5679 5678 5677 5675 5674 5674 5673 5672 5672 5671 5671 5671 5671
5688 5686 5683 5681 5679 5677 5676 5674 5673 5672 5671 5669 5668 5668 5667 5665 5663 5664 5662 5663 5665 5667 5666 5667 5668 5668 5668 5667 5667 5666 5665 5665 5665 5664 5663 5663 5663 5663
5678 5676 5673 5670 5668 5666 5664 5662 5660 5658 5656 5654 5653 5651 5651 5650 5649 5648 5647 5646 5647 5652 5650 5651 5653 5653 5655 5657 5658 5658 5657 5656 5656 5655 5655 5654 5654 5654
5668 5665 5663 5658 5655 5653 5652 5650 5648 5645 5643 5641 5639 5637 5636 5635 5633 5631 5630 5628 5629 5632 5631 5634 5637 5639 5642 5644 5645 5645 5645 5645 5645 5644 5644 5643 5643 5644
5656 5652 5648 5643 5639 5637 5638 5636 5635 5633 5631 5628 5626 5624 5622 5620 5617 5615 5615 5615 5618 5619 5618 5618 5623 5625 5630 5631 5631 5631 5630 5631 5631 5631 5631 5631 5631 5633
5643 5638 5634 5629 5624 5623 5622 5621 5619 5618 5617 5614 5612 5610 5608 5606 5603 5600 5599 5599 5600 5603 5603 5602 5605 5608 5612 5614 5615 5615 5615 5616 5616 5617 5617 5618 5619 5620
5628 5623 5618 5614 5610 5607 5606 5604 5603 5600 5598 5598 5597 5597 5595 5593 5590 5585 5582 5580 5580 5581 5583 5581 5582 5583 5589 5594 5595 5596 5597 5598 5599 5601 5603 5603 5604 5604
5615 5611 5605 5601 5597 5594 5591 5589 5586 5583 5582 5582 5582 5581 5579 5576 5572 5569 5565 5561 5559 5559 5560 5559 5559 5559 5561 5569 5573 5575 5577 5579 5581 5584 5586 5588 5589 5590
5599 5595 5591 5587 5584 5580 5577 5574 5570 5567 5566 5566 5563 5560 5557 5553 5550 5546 5544 5542 5540 5539 5539 5538 5538 5538 5540 5545 5551 5555 5557 5559 5562 5565 5569 5572 5574 5576
5583 5579 5576 5574 5570 5567 5562 5557 5553 5550 5547 5543 5539 5536 5532 5529 5526 5525 5524 5523 5522 5521 5521 5519 5519 5520 5521 5524 5530 5534 5538 5541 5543 5547 5551 5554 5557 5560
5567 5565 5563 5561 5555 5549 5545 5540 5534 5529 5524 5520 5516 5512 5509 5507 5505 5503 5502 5502 5502 5503 5502 5501 5502 5502 5504 5507 5510 5516 5519 5523 5528 5531 5535 5539 5542 5545
5547 5549 5549 5545 5538 5532 5526 5521 5514 5508 5503 5498 5494 5491 5488 5486 5484 5483 5482 5482 5483 5484 5486 5485 5486 5487 5489 5491 5496 5500 5504 5508 5512 5515 5519 5525 5529 5531
5530 5531 5528 5523 5517 5510 5505 5499 5493 5487 5482 5478 5475 5472 5470 5468 5467 5466 5465 5466 5466 5467 5468 5470 5471 5474 5478 5482 5483 5487 5491 5494 5499 5502 5505 5511 5519 5522
5515 5513 5508 5502 5496 5489 5484 5478 5473 5468 5464 5461 5458 5456 5454 5452 5452 5451 5451 5452 5452 5453 5455 5456 5458 5460 5464 5471 5476 5475 5477 5482 5487 5493 5497 5501 5508 5514
5502 5496 5489 5483 5476 5470 5465 5459 5455 5452 5449 5446 5444 5442 5440 5439 5439 5439 5439 5439 5441 5442 5444 5446 5448 5449 5451 5456 5463 5469 5470 5474 5479 5485 5490 5495 5501 5506
5483 5476 5470 5464 5459 5454 5448 5444 5441 5438 5435 5433 5431 5430 5428 5427 5428 5428 5429 5430 5431 5434 5436 5439 5441 5442 5444 5449 5456 5465 5469 5471 5474 5478 5483 5488 5495 5500
5465 5459 5454 5448 5444 5439 5435 5431 5428 5425 5423 5421 5419 5417 5417 5417 5418 5420 5421 5423 5425 5427 5429 5433 5436 5438 5441 5444 5451 5458 5466 5470 5474 5477 5481 5484 5487 5493
5450 5444 5440 5436 5431 5426 5422 5419 5416 5414 5411 5408 5406 5406 5406 5408 5409 5412 5414 5417 5419 5422 5425 5428 5432 5434 5438 5442 5447 5453 5460 5466 5472 5477 5482 5485 5487 5491